[[{"header":{"parameterUnit":"m.s-1","parameterCategory":1,"la1":30.2991,"la2":30.254,"lo1":-89.0895,"lo2":-89.0444,"dy":0.0017,"dx":0.0017,"nx":28,"ny":28,"refTime":"2025-03-09T03:00:00:Z","depth":0,"parameterNumber":2,"parameterNumberName":"U-component_of_WINDS"},"data":[0,0,0,0,0,0,0,0,0,0,0,0,0,0,0,0,0,0,0,0,0,0,0,0,0,0,0,0,0,0,0,0,0,0,0,0,0,0,0,0,0,0,0,0,0,0,0,0,0,0,0,0,0,0,0,0,0,0,2.1386,2.1386,0,2.1448,2.1449,2.1449,2.1437,2.1436,2.1435,2.1433,2.1498,2.1501,2.1503,0,0,0,0,0,0,0,0,0,0,0,0,0,2.1258,2.126,2.1385,2.1386,2.1387,2.1448,2.1449,2.1449,2.1437,2.1436,2.1434,2.1433,2.1497,2.15,2.1504,0,0,0,0,0,0,0,0,0,0,0,0,0,2.1316,2.1261,2.1385,2.1388,2.1389,2.1448,2.1449,2.145,2.1437,2.1436,2.1434,2.1432,2.1496,2.15,2.1504,2.1564,0,0,2.1517,2.1519,0,0,0,0,0,0,0,0,2.1313,2.1321,2.1387,2.1388,2.1389,2.1433,2.1427,2.1488,2.1438,2.1419,2.1433,2.1431,2.1478,2.1483,2.1499,2.1567,2.157,2.1517,2.152,2.1522,2.1523,0,0,0,0,0,0,0,2.1309,2.1318,2.141,2.1388,2.1389,2.1387,2.1393,2.1439,2.1457,2.142,2.142,2.1427,2.1478,2.1495,2.15,2.1571,2.1517,2.1521,2.1523,2.1525,2.1694,2.1696,0,0,0,0,0,0,2.1303,2.1315,2.1408,2.1412,2.1346,2.1391,2.1398,2.142,2.1457,2.146,2.1429,2.1426,2.1488,2.1495,2.1502,2.1577,2.1522,2.1525,2.1528,2.1692,2.1694,2.1697,0,0,0,0,0,0,2.1301,2.1312,2.1406,2.1363,2.1375,2.1395,2.142,2.1423,2.1439,2.1463,2.1466,2.1442,2.1487,2.1496,2.1549,2.1579,2.1527,2.1531,2.169,2.1693,2.1695,2.1724,0,0,0,0,0,0,2.1297,2.1311,2.1333,2.1364,2.1377,2.1451,2.1422,2.1425,2.1446,2.1444,2.1476,2.148,2.1487,2.1543,2.1553,2.1583,2.1534,2.1687,2.1691,2.1694,2.1721,2.1728,2.1734,0,0,0,0,0,2.1293,2.1339,2.1334,2.1346,2.1405,2.1453,2.146,2.1467,2.1449,2.1472,2.1487,2.1479,2.1574,2.1549,2.156,2.1592,2.1685,2.169,2.1694,2.1718,2.1726,2.1734,0,0,0,0,0,0,2.1311,2.1342,2.1338,2.1395,2.1422,2.145,2.148,2.1475,2.1507,2.1504,2.1511,2.1518,2.1572,2.1587,2.1559,2.1653,2.1627,2.1634,2.1641,2.1649,2.1656,2.1651,2.1538,0,0,0,0,0,2.1321,2.1356,2.1382,2.143,2.1444,2.146,2.148,2.1483,2.1511,2.1521,2.1541,2.1568,2.1604,2.1627,2.1662,2.1723,2.1731,2.175,2.1757,2.1762,2.1768,2.1804,2.1814,2.1711,2.1711,2.1711,0,0,2.1344,2.1365,2.1387,2.1435,2.1455,2.1492,2.1469,2.1509,2.1537,2.1528,2.1579,2.1594,2.1625,2.1683,2.1709,2.1697,2.1799,2.1768,2.1772,2.1775,2.181,2.1819,2.1828,2.1714,2.1714,2.1713,0,0,2.1404,2.1423,2.1466,2.1487,2.1519,2.1529,2.154,2.157,2.158,2.1632,2.1626,2.166,2.1721,2.1744,2.1764,2.1835,2.1829,2.1846,2.188,2.1915,2.1923,2.193,2.1957,2.1967,2.1852,2.1852,2.1852,0,2.1427,2.1483,2.1489,2.153,2.1552,2.1545,2.159,2.161,2.1652,2.1667,2.1653,2.1731,2.1752,2.1816,2.1833,2.1849,2.1862,2.1842,2.1921,2.1929,2.1936,2.1961,2.1971,2.1854,2.1854,2.1853,2.1853,0,2.1511,2.155,2.1581,2.1622,2.1647,2.1689,2.1703,2.1728,2.1729,2.1742,2.1795,2.182,2.186,2.1875,2.1876,2.194,2.1932,2.1919,2.1894,2.1947,2.1972,2.1981,2.1857,2.1856,2.1855,2.1855,0,0,2.1584,2.1628,2.164,2.1659,2.1694,2.1725,2.1768,2.1807,2.1829,2.1858,2.1895,2.1948,2.1938,2.196,2.1964,2.1994,2.2052,2.1979,2.1979,2.1992,2.2126,2.2136,2.2147,2.2048,2.205,2.2051,2.2124,0,2.1648,2.1723,2.1731,2.1799,2.1836,2.1832,2.1869,2.1896,2.1909,2.1943,2.1957,2.1996,2.1978,2.1991,2.2021,2.2038,2.2079,2.2033,2.2084,2.2085,2.2077,2.2159,2.217,2.2237,2.2133,2.2135,2.2136,0,2.1733,2.1765,2.1837,2.1869,2.1885,2.1918,2.1956,2.1988,2.2019,2.2026,2.2053,2.2053,2.2099,2.2071,2.2135,2.2104,2.2126,2.2137,2.214,2.2146,2.2114,2.2169,2.2258,2.2269,2.2151,2.2149,2.2148,0,2.178,2.1842,2.1893,2.1909,2.1948,2.1972,2.1989,2.2018,2.2042,2.2075,2.2091,2.2129,2.215,2.218,2.2192,2.217,2.2256,2.2229,2.2265,2.2265,2.2283,2.2282,2.2379,2.2295,2.2295,2.2295,2.2295,0,2.1852,2.1896,2.1915,2.1947,2.1997,2.2006,2.2056,2.2072,2.2098,2.2134,2.2132,2.2166,2.2178,2.2215,2.2224,2.2277,2.2286,2.2294,2.2296,2.2295,2.2294,2.231,2.2306,2.2298,2.2297,2.2297,2.2296,0,2.1913,2.1927,2.1984,2.2016,2.2025,2.2061,2.2089,2.212,2.2133,2.2179,2.219,2.2211,2.2254,2.2268,2.232,2.2326,2.2388,2.2385,2.2378,2.2378,2.2414,2.2411,2.2525,2.2541,2.2446,2.2447,2.2448,0,2.1958,2.1993,2.2029,2.2053,2.2071,2.2109,2.2134,2.2145,2.2171,2.2209,2.2236,2.2279,2.2313,2.2382,2.2402,2.2442,2.2442,2.2479,2.2448,2.2446,2.2444,2.2442,2.2447,2.2485,2.2486,2.2487,2.2487,0,2.2038,2.2043,2.2079,2.2118,2.2147,2.2178,2.2208,2.2228,2.2243,2.2273,2.2317,2.2343,2.2397,2.244,2.2481,2.2499,2.2497,2.2497,2.2508,2.2507,2.2502,2.2507,2.2395,2.2495,2.2494,2.2493,2.2493,2.2493,2.2093,2.2125,2.2155,2.2196,2.2219,2.2248,2.228,2.2297,2.2334,2.2378,2.2382,2.243,2.2462,2.2517,2.2538,2.2576,2.2566,2.2581,2.2585,2.2589,2.2593,2.2495,2.2584,2.2583,2.2583,2.2583,2.2583,0,2.2174,2.2194,2.2231,2.2273,2.2305,2.23,2.2333,2.2361,2.2403,2.2432,2.2467,2.2518,2.256,2.2585,2.2627,2.2653,2.2653,2.2664,2.2663,2.2668,2.2598,2.2586,2.2664,2.2664,2.2664,2.2664,2.2664,2.2664,2.222,2.2273,2.2282,2.2348,2.2368,2.2415,2.2434,2.2461,2.2485,2.2543,2.2578,2.2593,2.2622,2.2666,2.2705,2.2711,2.2728,2.274,2.2746,2.2681,2.2672,2.2664,2.2652,2.2743,2.2743,2.2812,2.2812,2.2813]},{"header":{"parameterUnit":"m.s-1","parameterCategory":1,"la1":30.2991,"la2":30.254,"lo1":-89.0895,"lo2":-89.0444,"dy":0.0017,"dx":0.0017,"nx":28,"ny":28,"refTime":"2025-03-09T03:00:00:Z","depth":0,"parameterNumber":3,"parameterNumberName":"V-component_of_WINDS"},"data":[0,0,0,0,0,0,0,0,0,0,0,0,0,0,0,0,0,0,0,0,0,0,0,0,0,0,0,0,0,0,0,0,0,0,0,0,0,0,0,0,0,0,0,0,0,0,0,0,0,0,0,0,0,0,0,0,0,0,-5.9851,-5.9852,0,-5.9959,-5.996,-5.9961,-5.9963,-5.9961,-5.996,-5.9959,-6.0064,-6.0068,-6.0072,0,0,0,0,0,0,0,0,0,0,0,0,0,-5.9642,-5.9646,-5.985,-5.9852,-5.9853,-5.9959,-5.996,-5.9961,-5.9963,-5.9961,-5.996,-5.9958,-6.0062,-6.0067,-6.0072,0,0,0,0,0,0,0,0,0,0,0,0,0,-5.9739,-5.9647,-5.985,-5.9867,-5.9869,-5.9958,-5.996,-5.9962,-5.9963,-5.9961,-5.9959,-5.9957,-6.0061,-6.0067,-6.0073,-6.0151,0,0,-6.0091,-6.0094,0,0,0,0,0,0,0,0,-5.9734,-5.9747,-5.9863,-5.9866,-5.9869,-5.9945,-5.9925,-6.0025,-5.9964,-5.9927,-5.9959,-5.9956,-6.0026,-6.0034,-6.0059,-6.0155,-6.016,-6.0092,-6.0095,-6.0098,-6.01,0,0,0,0,0,0,0,-5.9727,-5.9742,-5.9893,-5.9865,-5.9868,-5.9868,-5.9879,-5.9944,-5.9986,-5.993,-5.9931,-5.9944,-6.0027,-6.0053,-6.0061,-6.0161,-6.0092,-6.0097,-6.0101,-6.0103,-6.033,-6.0333,0,0,0,0,0,0,-5.9718,-5.9737,-5.989,-5.9896,-5.9795,-5.9873,-5.9886,-5.9923,-5.9986,-5.9993,-5.9946,-5.9944,-6.0044,-6.0054,-6.0065,-6.0162,-6.0098,-6.0104,-6.0107,-6.0328,-6.0331,-6.0333,0,0,0,0,0,0,-5.9713,-5.9731,-5.9885,-5.9817,-5.9836,-5.9879,-5.992,-5.9926,-5.9952,-5.9997,-6.0004,-5.9965,-6.0042,-6.0056,-6.013,-6.0166,-6.0106,-6.0112,-6.0325,-6.0329,-6.0332,-6.0356,0,0,0,0,0,0,-5.9707,-5.973,-5.976,-5.9818,-5.984,-5.995,-5.9922,-5.9929,-5.9963,-5.9962,-6.0017,-6.0024,-6.0042,-6.0121,-6.0136,-6.0173,-6.0117,-6.0322,-6.0327,-6.0331,-6.0352,-6.036,-6.0367,0,0,0,0,0,-5.97,-5.976,-5.9762,-5.978,-5.9879,-5.9952,-5.9964,-5.9985,-5.9966,-5.9997,-6.0027,-6.0023,-6.016,-6.0129,-6.0146,-6.0185,-6.032,-6.0325,-6.0331,-6.0349,-6.0358,-6.0366,0,0,0,0,0,0,-5.9703,-5.9768,-5.977,-5.9852,-5.9897,-5.9952,-5.9991,-5.9994,-6.0043,-6.004,-6.0062,-6.0074,-6.0148,-6.0174,-6.0138,-6.0265,-6.0237,-6.0246,-6.0245,-6.0255,-6.0262,-6.0254,-6.0122,0,0,0,0,0,-5.9714,-5.9769,-5.9822,-5.9889,-5.9912,-5.9948,-5.998,-5.9993,-6.0039,-6.0057,-6.0092,-6.0136,-6.0189,-6.0223,-6.0275,-6.0356,-6.0369,-6.0392,-6.0399,-6.0405,-6.0412,-6.0459,-6.047,-6.0351,-6.0351,-6.0351,0,0,-5.9735,-5.9778,-5.981,-5.9891,-5.9927,-5.9983,-5.9963,-6.0022,-6.0064,-6.0065,-6.0138,-6.0166,-6.0216,-6.0295,-6.0331,-6.0319,-6.0448,-6.0412,-6.0416,-6.042,-6.0466,-6.0477,-6.0487,-6.0355,-6.0354,-6.0353,0,0,-5.9803,-5.9841,-5.9902,-5.994,-5.9996,-6.0021,-6.0036,-6.0092,-6.0111,-6.0185,-6.0188,-6.0237,-6.0328,-6.0365,-6.0395,-6.0482,-6.0481,-6.0498,-6.0535,-6.0581,-6.059,-6.0599,-6.0631,-6.0642,-6.0505,-6.0505,-6.0505,0,-5.9822,-5.9908,-5.9932,-5.9993,-6.0029,-6.0036,-6.0098,-6.0133,-6.0202,-6.0227,-6.0212,-6.0329,-6.0363,-6.0452,-6.0473,-6.0497,-6.0515,-6.0491,-6.0587,-6.0596,-6.0604,-6.0635,-6.0647,-6.0507,-6.0507,-6.0507,-6.0507,0,-5.993,-5.9989,-6.0031,-6.0102,-6.0142,-6.0203,-6.0236,-6.0274,-6.0284,-6.031,-6.0386,-6.0429,-6.049,-6.0512,-6.052,-6.0603,-6.0593,-6.0583,-6.0555,-6.0617,-6.0646,-6.0658,-6.051,-6.0509,-6.0509,-6.0508,0,0,-6.0,-6.0086,-6.0101,-6.0135,-6.02,-6.0245,-6.0307,-6.037,-6.0402,-6.0451,-6.0503,-6.0582,-6.0574,-6.0609,-6.0622,-6.0662,-6.073,-6.0647,-6.0649,-6.0662,-6.0825,-6.0832,-6.0846,-6.0731,-6.0733,-6.0735,-6.0821,0,-6.0075,-6.0188,-6.0213,-6.0309,-6.0365,-6.0375,-6.0429,-6.0474,-6.0501,-6.0551,-6.058,-6.0636,-6.0621,-6.0642,-6.0683,-6.0714,-6.0763,-6.0708,-6.0779,-6.0781,-6.0766,-6.0861,-6.0868,-6.0947,-6.0832,-6.0834,-6.0836,0,-6.0178,-6.0233,-6.0335,-6.0396,-6.042,-6.0468,-6.0529,-6.0578,-6.063,-6.0646,-6.0688,-6.0698,-6.0762,-6.0733,-6.0823,-6.0784,-6.0815,-6.0835,-6.0839,-6.0846,-6.0812,-6.087,-6.0973,-6.0985,-6.0854,-6.0852,-6.0851,0,-6.022,-6.0319,-6.0394,-6.0422,-6.0494,-6.0528,-6.0559,-6.061,-6.0647,-6.07,-6.0725,-6.0783,-6.0815,-6.0861,-6.0887,-6.0863,-6.0975,-6.0947,-6.099,-6.0989,-6.1012,-6.101,-6.1121,-6.1032,-6.1032,-6.1032,-6.1031,0,-6.0302,-6.0364,-6.0415,-6.046,-6.0531,-6.056,-6.0629,-6.066,-6.0706,-6.0757,-6.0769,-6.0817,-6.0849,-6.0901,-6.0922,-6.0994,-6.1008,-6.1023,-6.1027,-6.1022,-6.102,-6.1042,-6.1037,-6.1035,-6.1034,-6.1033,-6.1033,0,-6.036,-6.0396,-6.0479,-6.0542,-6.056,-6.0609,-6.0663,-6.0708,-6.0736,-6.0802,-6.0819,-6.0862,-6.0925,-6.0957,-6.1033,-6.1048,-6.1129,-6.113,-6.1112,-6.1114,-6.1156,-6.1152,-6.1284,-6.1304,-6.1201,-6.1202,-6.1203,0,-6.041,-6.0459,-6.0529,-6.0566,-6.0599,-6.0658,-6.0697,-6.0728,-6.0768,-6.0833,-6.0871,-6.0935,-6.0988,-6.1088,-6.1125,-6.1185,-6.1188,-6.123,-6.1196,-6.119,-6.1189,-6.1186,-6.1192,-6.1236,-6.1237,-6.1238,-6.1238,0,-6.0494,-6.0511,-6.0568,-6.0633,-6.068,-6.0732,-6.0782,-6.0811,-6.0851,-6.0895,-6.0961,-6.1003,-6.1084,-6.1148,-6.1211,-6.1242,-6.1247,-6.1249,-6.1262,-6.1257,-6.1245,-6.1253,-6.1129,-6.1245,-6.1245,-6.1244,-6.1244,-6.1244,-6.055,-6.0595,-6.0653,-6.0717,-6.0759,-6.0807,-6.0854,-6.089,-6.0946,-6.1017,-6.1031,-6.1102,-6.1155,-6.1241,-6.1274,-6.1329,-6.132,-6.1338,-6.1343,-6.1347,-6.135,-6.1237,-6.1341,-6.134,-6.134,-6.134,-6.134,0,-6.0636,-6.0675,-6.0734,-6.0806,-6.0857,-6.0861,-6.0918,-6.096,-6.1022,-6.1073,-6.1126,-6.1203,-6.1266,-6.131,-6.1374,-6.141,-6.1414,-6.1426,-6.1423,-6.143,-6.1355,-6.1337,-6.1421,-6.1421,-6.1421,-6.1421,-6.1421,-6.1421,-6.0687,-6.0764,-6.0788,-6.0887,-6.0925,-6.0996,-6.1029,-6.1073,-6.1114,-6.1201,-6.1254,-6.1284,-6.1332,-6.14,-6.1458,-6.147,-6.1493,-6.1505,-6.1516,-6.1444,-6.1435,-6.1427,-6.1411,-6.1509,-6.151,-6.1587,-6.1588,-6.1589]}]]